Budapest Ferihegy, Hungary

4:14 PM CEST on June 24, 2017 (GMT +0200)
Ferihegy

Weather History for LHBP - December, 2013

Change the Weather History Date:

Thursday, December 12, 2013

  Actual Average Record
Temperature  
Mean Temperature 32 °F -  
Max Temperature 35 °F 35 °F 46 °F (1997)
Min Temperature 28 °F 23 °F 6 °F (2002)
Degree Days  
Heating Degree Days 34    
Moisture  
Dew Point 30 °F    
Average Humidity 89    
Maximum Humidity 100    
Minimum Humidity 75    
Precipitation  
Precipitation 0.00 in - - ()
Sea Level Pressure  
Sea Level Pressure 30.51 in    
Wind  
Wind Speed 3 mph ()    
Max Wind Speed 8 mph    
Max Gust Speed -    
Visibility 4.3 miles    
Events      
Averages and records for this station are not official NWS values.
T = Trace of Precipitation, MM = Missing Value Source: Averaged Metar Reports

Daily Weather History Graph

Daily Weather History Graph

Search for Another Location

Airport or City:

Trip Planner

Search our weather history database for the weather conditions in past years. The results will help you decide how hot, cold, wet, or windy it might be!

Date:

Astronomy

Dec. 12, 2013 Rise Set
Actual Time 7:21 AM CET 3:52 PM CET
Civil Twilight 6:45 AM CET 4:27 PM CET
Nautical Twilight 6:06 AM CET 5:06 PM CET
Astronomical Twilight 5:29 AM CET 5:44 PM CET
Moon 1:03 PM CET (12/12) 2:09 AM CET (12/12)
Length of Visible Light 9h 42m
Length of Day
8h 30m
Waxing Gibbous, 78% of the Moon is Illuminated
Dec 12
Waxing Gibbous
Dec 17
Full
Dec 25
Last Quarter
Jan 1
New
Jan 8
First Quarter

Hourly Weather History & Observations

Time (CET) Temp. Windchill Dew Point Humidity Pressure Visibility Wind Dir Wind Speed Gust Speed Precip Events Conditions
12:00 AM 30.2 °F 26.7 °F 24.8 °F 80% 30.60 in 4.3 mi Variable 3.5 mph - N/A   Mostly Cloudy
12:30 AM 30.2 °F - 24.8 °F 80% 30.57 in 4.3 mi Variable 2.3 mph - N/A   Mostly Cloudy
1:00 AM 28.4 °F 23.3 °F 24.8 °F 86% 30.60 in 4.3 mi East 4.6 mph - N/A   Mostly Cloudy
1:30 AM 30.2 °F 26.7 °F 23.0 °F 75% 30.57 in 4.3 mi Variable 3.5 mph - N/A   Mostly Cloudy
2:00 AM 30.2 °F - 24.8 °F 80% 30.57 in 4.3 mi Variable 2.3 mph - N/A   Mostly Cloudy
2:30 AM 30.2 °F 26.7 °F 23.0 °F 75% 30.57 in 4.3 mi Variable 3.5 mph - N/A   Mostly Cloudy
3:00 AM 30.2 °F 26.7 °F 23.0 °F 75% 30.57 in 4.3 mi Variable 3.5 mph - N/A   Mostly Cloudy
3:30 AM 30.2 °F - 24.8 °F 80% 30.57 in 4.3 mi Variable 1.2 mph - N/A   Mostly Cloudy
4:00 AM 30.2 °F - 24.8 °F 80% 30.57 in 4.3 mi Variable 1.2 mph - N/A   Mostly Cloudy
4:30 AM 30.2 °F - 24.8 °F 80% 30.57 in 4.3 mi Variable 2.3 mph - N/A   Mostly Cloudy
5:00 AM 30.2 °F - 24.8 °F 80% 30.54 in 4.3 mi Variable 2.3 mph - N/A   Overcast
5:30 AM 30.2 °F 26.7 °F 26.6 °F 86% 30.54 in 4.3 mi Variable 3.5 mph - N/A   Overcast
6:00 AM 30.2 °F - 26.6 °F 86% 30.54 in 4.3 mi Calm Calm - N/A   Overcast
6:30 AM 30.2 °F - 26.6 °F 86% 30.54 in 4.3 mi Variable 2.3 mph - N/A   Overcast
7:00 AM 30.2 °F - 26.6 °F 86% 30.54 in 5.0 mi Variable 2.3 mph - N/A   Overcast
7:30 AM 32.0 °F - 26.6 °F 80% 30.54 in 3.1 mi Variable 1.2 mph - N/A   Overcast
8:00 AM 32.0 °F - 26.6 °F 80% 30.54 in 3.7 mi Variable 2.3 mph - N/A   Overcast
8:30 AM 32.0 °F - 26.6 °F 80% 30.57 in 4.3 mi Variable 2.3 mph - N/A   Overcast
9:00 AM 32.0 °F - 26.6 °F 80% 30.54 in 3.7 mi Variable 2.3 mph - N/A   Overcast
9:30 AM 32.0 °F - 28.4 °F 87% 30.54 in 3.1 mi Variable 2.3 mph - N/A   Overcast
10:00 AM 32.0 °F - 28.4 °F 87% 30.54 in 3.1 mi Variable 2.3 mph - N/A   Overcast
10:30 AM 33.8 °F - 28.4 °F 81% 30.54 in 2.8 mi Variable 2.3 mph - N/A   Overcast
11:00 AM 33.8 °F - 28.4 °F 81% 30.54 in 2.5 mi Variable 1.2 mph - N/A   Overcast
11:30 AM 33.8 °F - 30.2 °F 87% 30.54 in 3.1 mi Calm Calm - N/A   Overcast
12:00 PM 35.6 °F - 30.2 °F 81% 30.54 in 4.3 mi Variable 2.3 mph - N/A   Overcast
12:30 PM 35.6 °F 29.2 °F 33.8 °F 93% 30.51 in 5.0 mi West 8.1 mph - N/A   Overcast
1:00 PM 35.6 °F 29.2 °F 33.8 °F 93% 30.51 in 5.0 mi West 8.1 mph - N/A   Overcast
1:30 PM 35.6 °F 30.7 °F 33.8 °F 93% 30.51 in 5.0 mi WSW 5.8 mph - N/A   Overcast
2:00 PM 35.6 °F 30.7 °F 33.8 °F 93% 30.51 in 5.0 mi WSW 5.8 mph - N/A   Overcast
2:30 PM 35.6 °F 30.7 °F 33.8 °F 93% 30.48 in 5.0 mi SW 5.8 mph - N/A   Overcast
3:00 PM 35.6 °F 29.9 °F 33.8 °F 93% 30.48 in 5.0 mi WSW 6.9 mph - N/A   Overcast
3:30 PM 33.8 °F 27.7 °F 33.8 °F 100% 30.48 in 5.0 mi West 6.9 mph - N/A   Overcast
4:00 PM 33.8 °F 29.6 °F 33.8 °F 100% 30.48 in 5.0 mi WSW 4.6 mph - N/A   Overcast
4:30 PM 33.8 °F 30.8 °F 33.8 °F 100% 30.48 in 5.0 mi Variable 3.5 mph - N/A   Overcast
5:00 PM 33.8 °F 29.6 °F 33.8 °F 100% 30.48 in 6.2 mi WSW 4.6 mph - N/A   Overcast
5:30 PM 33.8 °F - 33.8 °F 100% 30.48 in 6.2 mi Variable 2.3 mph - N/A   Overcast
6:00 PM 33.8 °F - 33.8 °F 100% 30.48 in 6.2 mi Variable 2.3 mph - N/A   Overcast
6:30 PM 33.8 °F - 33.8 °F 100% 30.48 in 6.2 mi Variable 2.3 mph - N/A   Overcast
7:00 PM 33.8 °F - 33.8 °F 100% 30.45 in 5.0 mi Variable 2.3 mph - N/A   Overcast
7:30 PM 33.8 °F - 33.8 °F 100% 30.45 in 5.0 mi Variable 2.3 mph - N/A   Overcast
8:00 PM 33.8 °F - 33.8 °F 100% 30.45 in 3.7 mi Variable 2.3 mph - N/A   Overcast
8:30 PM 33.8 °F 28.6 °F 33.8 °F 100% 30.45 in 3.7 mi WSW 5.8 mph - N/A   Light Drizzle
9:00 PM 33.8 °F 27.7 °F 33.8 °F 100% 30.45 in 3.7 mi WSW 6.9 mph - N/A   Light Drizzle
9:30 PM 33.8 °F 28.6 °F 33.8 °F 100% 30.45 in 3.7 mi WSW 5.8 mph - N/A   Light Drizzle
10:00 PM 33.8 °F 27.7 °F 33.8 °F 100% 30.45 in 3.7 mi West 6.9 mph - N/A   Light Drizzle
10:30 PM 33.8 °F 27.7 °F 32.0 °F 93% 30.45 in 3.7 mi WSW 6.9 mph - N/A   Light Drizzle
11:00 PM 33.8 °F 29.6 °F 32.0 °F 93% 30.45 in 3.7 mi NW 4.6 mph - N/A   Overcast
11:30 PM 33.8 °F 27.7 °F 30.2 °F 87% 30.42 in 3.7 mi NW 6.9 mph - N/A   Overcast